Time,TemperatureF,DewpointF,PressureIn,WindDirection,WindDirectionDegrees,WindSpeedMPH,WindSpeedGustMPH,Humidity,HourlyPrecipIn,Conditions,Clouds,dailyrainin,SoftwareType,DateUTC
2013-03-05 00:00:00,25.0,7.1,27.31,NW,315,10.1,10.3,46,0.00,,---,0.00,VWS V14.01,2013-03-05 06:00:00,
2013-03-05 00:05:00,25.0,7.1,27.31,NW,315,15.9,16.6,46,0.00,,---,0.00,VWS V14.01,2013-03-05 06:05:00,
2013-03-05 00:10:00,25.0,7.1,27.31,NW,315,10.7,16.6,46,0.00,,---,0.00,VWS V14.01,2013-03-05 06:10:00,
2013-03-05 00:15:00,25.0,7.1,27.31,NW,315,12.3,12.3,46,0.00,,---,0.00,VWS V14.01,2013-03-05 06:15:00,
2013-03-05 00:20:00,24.8,7.0,27.31,NW,315,7.6,12.3,46,0.00,,---,0.00,VWS V14.01,2013-03-05 06:20:00,
2013-03-05 00:25:00,24.4,7.1,27.31,NW,315,8.1,12.3,47,0.00,,---,0.00,VWS V14.01,2013-03-05 06:25:00,
2013-03-05 00:30:00,24.3,6.9,27.31,NW,315,6.9,6.9,47,0.00,,---,0.00,VWS V14.01,2013-03-05 06:30:00,
2013-03-05 00:35:00,24.3,6.9,27.31,NW,315,13.4,14.3,47,0.00,,---,0.00,VWS V14.01,2013-03-05 06:35:00,
2013-03-05 00:40:00,24.4,7.1,27.31,NW,315,10.7,14.3,47,0.00,,---,0.00,VWS V14.01,2013-03-05 06:40:00,
2013-03-05 00:45:00,24.4,7.1,27.31,NW,315,13.6,13.6,47,0.00,,---,0.00,VWS V14.01,2013-03-05 06:45:00,
2013-03-05 00:50:00,24.4,7.1,27.31,NW,315,9.8,13.6,47,0.00,,---,0.00,VWS V14.01,2013-03-05 06:50:00,
2013-03-05 00:55:00,24.1,6.8,27.31,NW,315,8.1,13.6,47,0.00,,---,0.00,VWS V14.01,2013-03-05 06:55:00,
2013-03-05 01:00:00,23.5,6.8,27.31,NW,315,8.1,8.1,48,0.00,,---,0.00,VWS V14.01,2013-03-05 07:00:00,
2013-03-05 01:05:00,23.4,7.0,27.31,NW,315,7.4,8.7,49,0.00,,---,0.00,VWS V14.01,2013-03-05 07:05:00,
2013-03-05 01:10:00,22.8,7.0,27.31,NW,315,5.8,8.7,50,0.00,,---,0.00,VWS V14.01,2013-03-05 07:10:00,
2013-03-05 01:15:00,22.6,7.2,27.31,WNW,292,4.3,6.5,51,0.00,,---,0.00,VWS V14.01,2013-03-05 07:15:00,
2013-03-05 01:20:00,22.3,7.3,27.31,NW,315,4.0,6.5,52,0.00,,---,0.00,VWS V14.01,2013-03-05 07:20:00,
2013-03-05 01:25:00,21.9,7.4,27.31,NNW,338,4.3,8.5,53,0.00,,---,0.00,VWS V14.01,2013-03-05 07:25:00,
2013-03-05 01:30:00,22.1,8.0,27.31,NW,315,6.3,8.5,54,0.00,,---,0.00,VWS V14.01,2013-03-05 07:30:00,
2013-03-05 01:35:00,22.8,8.7,27.34,NNW,338,15.4,16.8,54,0.00,,---,0.00,VWS V14.01,2013-03-05 07:35:00,
2013-03-05 01:40:00,23.7,9.1,27.34,NW,315,15.4,19.7,53,0.00,,---,0.00,VWS V14.01,2013-03-05 07:40:00,
2013-03-05 01:45:00,24.1,9.0,27.34,WNW,292,17.7,23.5,52,0.00,,---,0.00,VWS V14.01,2013-03-05 07:45:00,
2013-03-05 01:50:00,24.4,9.4,27.31,NW,315,13.9,24.2,52,0.00,,---,0.00,VWS V14.01,2013-03-05 07:50:00,
2013-03-05 01:55:00,24.4,8.9,27.31,NW,315,17.7,24.2,51,0.00,,---,0.00,VWS V14.01,2013-03-05 07:55:00,
2013-03-05 02:00:00,24.4,8.5,27.31,NNW,338,13.4,24.2,50,0.00,,---,0.00,VWS V14.01,2013-03-05 08:00:00,
2013-03-05 02:05:00,24.3,8.3,27.34,NW,315,13.2,17.7,50,0.00,,---,0.00,VWS V14.01,2013-03-05 08:05:00,
2013-03-05 02:10:00,24.1,8.1,27.34,WNW,292,11.9,17.7,50,0.00,,---,0.00,VWS V14.01,2013-03-05 08:10:00,
2013-03-05 02:15:00,23.9,8.0,27.34,NW,315,17.5,17.5,50,0.00,,---,0.00,VWS V14.01,2013-03-05 08:15:00,
2013-03-05 02:20:00,23.9,8.0,27.34,NW,315,12.5,20.6,50,0.00,,---,0.00,VWS V14.01,2013-03-05 08:20:00,
2013-03-05 02:25:00,23.9,7.5,27.34,NW,315,17.5,20.6,49,0.00,,---,0.00,VWS V14.01,2013-03-05 08:25:00,
2013-03-05 02:30:00,23.9,7.1,27.34,NW,315,14.8,26.0,48,0.00,,---,0.00,VWS V14.01,2013-03-05 08:30:00,
2013-03-05 02:35:00,24.1,7.2,27.34,NW,315,19.5,19.9,48,0.00,,---,0.00,VWS V14.01,2013-03-05 08:35:00,
2013-03-05 02:40:00,24.1,7.2,27.34,NW,315,12.5,19.9,48,0.00,,---,0.00,VWS V14.01,2013-03-05 08:40:00,
2013-03-05 02:45:00,23.7,6.9,27.34,WNW,292,8.7,19.9,48,0.00,,---,0.00,VWS V14.01,2013-03-05 08:45:00,
2013-03-05 02:50:00,23.5,7.2,27.34,NW,315,10.5,13.2,49,0.00,,---,0.00,VWS V14.01,2013-03-05 08:50:00,
2013-03-05 02:55:00,23.4,7.0,27.34,NW,315,13.2,19.7,49,0.00,,---,0.00,VWS V14.01,2013-03-05 08:55:00,
2013-03-05 03:00:00,23.2,6.9,27.34,NW,315,12.3,19.7,49,0.00,,---,0.00,VWS V14.01,2013-03-05 09:00:00,
2013-03-05 03:05:00,23.2,6.9,27.34,WNW,292,10.5,16.8,49,0.00,,---,0.00,VWS V14.01,2013-03-05 09:05:00,
2013-03-05 03:10:00,22.8,7.0,27.34,SW,225,5.6,16.8,50,0.00,,---,0.00,VWS V14.01,2013-03-05 09:10:00,
2013-03-05 03:15:00,22.6,6.8,27.34,NW,315,8.7,16.8,50,0.00,,---,0.00,VWS V14.01,2013-03-05 09:15:00,
2013-03-05 03:20:00,22.3,6.9,27.34,NW,315,5.8,11.2,51,0.00,,---,0.00,VWS V14.01,2013-03-05 09:20:00,
2013-03-05 03:25:00,22.1,6.8,27.34,NW,315,8.5,11.2,51,0.00,,---,0.00,VWS V14.01,2013-03-05 09:25:00,
2013-03-05 03:30:00,22.1,6.8,27.34,NW,315,8.1,11.2,51,0.00,,---,0.00,VWS V14.01,2013-03-05 09:30:00,
2013-03-05 03:35:00,22.1,6.8,27.34,West,270,10.7,12.8,51,0.00,,---,0.00,VWS V14.01,2013-03-05 09:35:00,
2013-03-05 03:40:00,22.5,7.1,27.34,NW,315,8.7,13.0,51,0.00,,---,0.00,VWS V14.01,2013-03-05 09:40:00,
2013-03-05 03:45:00,22.6,7.2,27.34,NW,315,10.3,15.2,51,0.00,,---,0.00,VWS V14.01,2013-03-05 09:45:00,
2013-03-05 03:50:00,22.6,7.2,27.37,NW,315,14.8,16.3,51,0.00,,---,0.00,VWS V14.01,2013-03-05 09:50:00,
2013-03-05 03:55:00,22.6,7.2,27.37,WNW,292,12.3,16.3,51,0.00,,---,0.00,VWS V14.01,2013-03-05 09:55:00,
2013-03-05 04:00:00,22.5,7.1,27.37,WNW,292,9.4,16.3,51,0.00,,---,0.00,VWS V14.01,2013-03-05 10:00:00,
2013-03-05 04:05:00,22.5,7.5,27.34,WNW,292,10.5,15.2,52,0.00,,---,0.00,VWS V14.01,2013-03-05 10:05:00,
2013-03-05 04:10:00,22.6,7.7,27.34,NW,315,10.3,17.0,52,0.00,,---,0.00,VWS V14.01,2013-03-05 10:10:00,
2013-03-05 04:15:00,22.6,7.7,27.34,NW,315,12.5,19.9,52,0.00,,---,0.00,VWS V14.01,2013-03-05 10:15:00,
2013-03-05 04:20:00,22.6,7.7,27.34,NW,315,10.3,19.9,52,0.00,,---,0.00,VWS V14.01,2013-03-05 10:20:00,
2013-03-05 04:25:00,22.6,7.7,27.34,NW,315,14.5,19.9,52,0.00,,---,0.00,VWS V14.01,2013-03-05 10:25:00,
2013-03-05 04:30:00,22.5,7.5,27.34,WNW,292,7.8,19.9,52,0.00,,---,0.00,VWS V14.01,2013-03-05 10:30:00,
2013-03-05 04:35:00,22.3,7.3,27.37,WNW,292,13.0,13.2,52,0.00,,---,0.00,VWS V14.01,2013-03-05 10:35:00,
2013-03-05 04:40:00,22.3,7.8,27.37,NW,315,7.8,13.2,53,0.00,,---,0.00,VWS V14.01,2013-03-05 10:40:00,
2013-03-05 04:45:00,22.3,7.8,27.37,NW,315,13.6,13.6,53,0.00,,---,0.00,VWS V14.01,2013-03-05 10:45:00,
2013-03-05 04:50:00,22.3,7.3,27.37,NW,315,15.2,15.2,52,0.00,,---,0.00,VWS V14.01,2013-03-05 10:50:00,
2013-03-05 04:55:00,22.5,7.5,27.37,NW,315,13.2,23.0,52,0.00,,---,0.00,VWS V14.01,2013-03-05 10:55:00,
2013-03-05 05:00:00,22.6,7.7,27.37,NW,315,19.5,23.0,52,0.00,,---,0.00,VWS V14.01,2013-03-05 11:00:00,
2013-03-05 05:05:00,22.6,7.7,27.40,NW,315,13.2,21.5,52,0.00,,---,0.00,VWS V14.01,2013-03-05 11:05:00,
2013-03-05 05:10:00,22.6,7.2,27.40,NW,315,13.4,21.5,51,0.00,,---,0.00,VWS V14.01,2013-03-05 11:10:00,
2013-03-05 05:15:00,22.5,7.1,27.40,NW,315,9.6,21.5,51,0.00,,---,0.00,VWS V14.01,2013-03-05 11:15:00,
2013-03-05 05:20:00,22.5,7.1,27.37,NW,315,12.8,19.5,51,0.00,,---,0.00,VWS V14.01,2013-03-05 11:20:00,
2013-03-05 05:25:00,22.3,6.9,27.37,NW,315,8.7,19.5,51,0.00,,---,0.00,VWS V14.01,2013-03-05 11:25:00,
2013-03-05 05:30:00,22.3,6.9,27.37,NW,315,17.7,19.5,51,0.00,,---,0.00,VWS V14.01,2013-03-05 11:30:00,
2013-03-05 05:35:00,22.3,6.9,27.37,West,270,9.6,18.6,51,0.00,,---,0.00,VWS V14.01,2013-03-05 11:35:00,
2013-03-05 05:40:00,21.9,6.6,27.37,NW,315,12.1,18.6,51,0.00,,---,0.00,VWS V14.01,2013-03-05 11:40:00,
2013-03-05 05:45:00,21.9,7.0,27.37,NW,315,14.3,18.6,52,0.00,,---,0.00,VWS V14.01,2013-03-05 11:45:00,
2013-03-05 05:50:00,21.9,7.0,27.37,NW,315,10.5,14.5,52,0.00,,---,0.00,VWS V14.01,2013-03-05 11:50:00,
2013-03-05 05:55:00,21.7,6.8,27.37,NNW,338,10.7,14.5,52,0.00,,---,0.00,VWS V14.01,2013-03-05 11:55:00,
2013-03-05 06:00:00,21.7,6.8,27.37,NW,315,9.8,14.5,52,0.00,,---,0.00,VWS V14.01,2013-03-05 12:00:00,
2013-03-05 06:05:00,21.6,6.7,27.37,NW,315,11.0,11.0,52,0.00,,---,0.00,VWS V14.01,2013-03-05 12:05:00,
2013-03-05 06:10:00,21.6,6.7,27.37,NNW,338,12.3,12.3,52,0.00,,---,0.00,VWS V14.01,2013-03-05 12:10:00,
2013-03-05 06:15:00,21.6,7.1,27.37,NW,315,7.4,12.8,53,0.00,,---,0.00,VWS V14.01,2013-03-05 12:15:00,
2013-03-05 06:20:00,21.4,6.9,27.37,WNW,292,6.0,11.0,53,0.00,,---,0.00,VWS V14.01,2013-03-05 12:20:00,
2013-03-05 06:25:00,21.4,6.5,27.37,NNW,338,12.1,17.9,52,0.00,,---,0.00,VWS V14.01,2013-03-05 12:25:00,
2013-03-05 06:30:00,21.6,6.7,27.37,NW,315,14.5,17.9,52,0.00,,---,0.00,VWS V14.01,2013-03-05 12:30:00,
2013-03-05 06:35:00,21.6,6.7,27.40,NW,315,14.8,17.9,52,0.00,,---,0.00,VWS V14.01,2013-03-05 12:35:00,
2013-03-05 06:40:00,21.6,6.7,27.40,NW,315,12.3,17.9,52,0.00,,---,0.00,VWS V14.01,2013-03-05 12:40:00,
2013-03-05 06:45:00,21.4,6.5,27.40,NW,315,10.3,17.9,52,0.00,,---,0.00,VWS V14.01,2013-03-05 12:45:00,
2013-03-05 06:50:00,21.2,6.3,27.40,NW,315,7.6,12.1,52,0.00,,---,0.00,VWS V14.01,2013-03-05 12:50:00,
2013-03-05 06:55:00,21.0,6.6,27.40,NW,315,8.5,12.1,53,0.00,,---,0.00,VWS V14.01,2013-03-05 12:55:00,
2013-03-05 07:00:00,20.8,6.4,27.40,NNW,338,11.0,12.1,53,0.00,,---,0.00,VWS V14.01,2013-03-05 13:00:00,
2013-03-05 07:05:00,20.8,6.4,27.40,NW,315,10.3,11.0,53,0.00,,---,0.00,VWS V14.01,2013-03-05 13:05:00,
2013-03-05 07:10:00,20.5,6.1,27.40,NW,315,7.6,11.0,53,0.00,,---,0.00,VWS V14.01,2013-03-05 13:10:00,
2013-03-05 07:15:00,20.3,6.3,27.40,WNW,292,10.1,11.0,54,0.00,,---,0.00,VWS V14.01,2013-03-05 13:15:00,
2013-03-05 07:20:00,20.5,6.5,27.43,NW,315,7.8,11.0,54,0.00,,---,0.00,VWS V14.01,2013-03-05 13:20:00,
2013-03-05 07:25:00,21.0,7.0,27.43,NW,315,10.5,13.0,54,0.00,,---,0.00,VWS V14.01,2013-03-05 13:25:00,
2013-03-05 07:30:00,21.9,7.4,27.43,NW,315,13.0,14.8,53,0.00,,---,0.00,VWS V14.01,2013-03-05 13:30:00,
2013-03-05 07:35:00,22.3,7.3,27.43,NW,315,13.0,14.5,52,0.00,,---,0.00,VWS V14.01,2013-03-05 13:35:00,
2013-03-05 07:40:00,22.8,7.8,27.43,NW,315,14.8,14.8,52,0.00,,---,0.00,VWS V14.01,2013-03-05 13:40:00,
2013-03-05 07:45:00,23.2,7.8,27.43,NW,315,11.2,14.8,51,0.00,,---,0.00,VWS V14.01,2013-03-05 13:45:00,
2013-03-05 07:50:00,23.7,8.2,27.43,NW,315,13.2,14.1,51,0.00,,---,0.00,VWS V14.01,2013-03-05 13:50:00,
2013-03-05 07:55:00,24.1,8.1,27.43,NW,315,10.3,14.1,50,0.00,,---,0.00,VWS V14.01,2013-03-05 13:55:00,
2013-03-05 08:00:00,24.6,8.6,27.43,NW,315,13.0,15.7,50,0.00,,---,0.00,VWS V14.01,2013-03-05 14:00:00,
2013-03-05 08:05:00,24.8,8.4,27.43,NW,315,11.0,19.9,49,0.00,,---,0.00,VWS V14.01,2013-03-05 14:05:00,
2013-03-05 08:10:00,25.2,8.7,27.43,NW,315,16.8,20.6,49,0.00,,---,0.00,VWS V14.01,2013-03-05 14:10:00,
2013-03-05 08:15:00,25.7,9.2,27.43,NW,315,13.2,20.6,49,0.00,,---,0.00,VWS V14.01,2013-03-05 14:15:00,
2013-03-05 08:20:00,25.9,8.9,27.43,NW,315,11.0,20.4,48,0.00,,---,0.00,VWS V14.01,2013-03-05 14:20:00,
2013-03-05 08:25:00,26.1,9.1,27.43,NW,315,23.9,23.9,48,0.00,,---,0.00,VWS V14.01,2013-03-05 14:25:00,
2013-03-05 08:30:00,26.6,9.1,27.43,NW,315,14.5,23.9,47,0.00,,---,0.00,VWS V14.01,2013-03-05 14:30:00,
2013-03-05 08:35:00,26.6,9.1,27.43,NW,315,17.0,23.5,47,0.00,,---,0.00,VWS V14.01,2013-03-05 14:35:00,
2013-03-05 08:40:00,27.1,9.1,27.43,NW,315,13.2,23.5,46,0.00,,---,0.00,VWS V14.01,2013-03-05 14:40:00,
2013-03-05 08:45:00,27.5,9.4,27.43,NW,315,15.2,23.5,46,0.00,,---,0.00,VWS V14.01,2013-03-05 14:45:00,
2013-03-05 08:50:00,27.5,9.4,27.43,NW,315,15.4,20.4,46,0.00,,---,0.00,VWS V14.01,2013-03-05 14:50:00,
2013-03-05 08:55:00,27.9,9.8,27.43,NNW,338,13.2,20.4,46,0.00,,---,0.00,VWS V14.01,2013-03-05 14:55:00,
2013-03-05 09:00:00,28.6,9.9,27.43,NNW,338,13.2,21.5,45,0.00,,---,0.00,VWS V14.01,2013-03-05 15:00:00,
2013-03-05 09:05:00,29.1,10.4,27.40,NW,315,15.2,20.4,45,0.00,,---,0.00,VWS V14.01,2013-03-05 15:05:00,
2013-03-05 09:10:00,29.7,10.4,27.40,North,0,10.5,26.2,44,0.00,,---,0.00,VWS V14.01,2013-03-05 15:10:00,
2013-03-05 09:15:00,29.8,10.1,27.40,NW,315,13.0,26.2,43,0.00,,---,0.00,VWS V14.01,2013-03-05 15:15:00,
2013-03-05 09:20:00,30.4,10.6,27.43,NW,315,15.4,21.5,43,0.00,,---,0.00,VWS V14.01,2013-03-05 15:20:00,
2013-03-05 09:25:00,30.6,10.2,27.43,NW,315,12.8,21.5,42,0.00,,---,0.00,VWS V14.01,2013-03-05 15:25:00,
2013-03-05 09:30:00,30.7,10.9,27.43,NW,315,17.2,22.2,43,0.00,,---,0.00,VWS V14.01,2013-03-05 15:30:00,
2013-03-05 09:35:00,31.1,10.7,27.40,NNW,338,17.0,22.4,42,0.00,,---,0.00,VWS V14.01,2013-03-05 15:35:00,
2013-03-05 09:40:00,31.6,11.2,27.40,NW,315,12.3,22.4,42,0.00,,---,0.00,VWS V14.01,2013-03-05 15:40:00,
2013-03-05 09:45:00,32.0,11.5,27.40,NW,315,17.5,22.4,42,0.00,,---,0.00,VWS V14.01,2013-03-05 15:45:00,
2013-03-05 09:50:00,32.5,11.5,27.43,WNW,292,12.5,19.5,41,0.00,,---,0.00,VWS V14.01,2013-03-05 15:50:00,
2013-03-05 09:55:00,33.1,12.0,27.43,NNW,338,9.8,19.5,41,0.00,,---,0.00,VWS V14.01,2013-03-05 15:55:00,
2013-03-05 10:00:00,33.8,12.6,27.43,NW,315,13.4,19.5,41,0.00,,---,0.00,VWS V14.01,2013-03-05 16:00:00,
2013-03-05 10:05:00,33.6,12.4,27.40,North,0,11.0,25.1,41,0.00,,---,0.00,VWS V14.01,2013-03-05 16:05:00,
2013-03-05 10:10:00,33.8,12.6,27.40,North,0,15.4,25.1,41,0.00,,---,0.00,VWS V14.01,2013-03-05 16:10:00,
2013-03-05 10:15:00,34.0,12.2,27.40,NW,315,17.7,25.1,40,0.00,,---,0.00,VWS V14.01,2013-03-05 16:15:00,
2013-03-05 10:20:00,34.2,11.8,27.43,NNW,338,12.5,17.7,39,0.00,,---,0.00,VWS V14.01,2013-03-05 16:20:00,
2013-03-05 10:25:00,34.3,12.0,27.43,North,0,10.7,22.6,39,0.00,,---,0.00,VWS V14.01,2013-03-05 16:25:00,
2013-03-05 10:30:00,35.1,12.6,27.43,North,0,10.1,22.6,39,0.00,,---,0.00,VWS V14.01,2013-03-05 16:30:00,
2013-03-05 10:35:00,35.2,12.2,27.43,North,0,13.0,19.5,38,0.00,,---,0.00,VWS V14.01,2013-03-05 16:35:00,
2013-03-05 10:40:00,35.4,11.8,27.43,North,0,17.5,19.5,37,0.00,,---,0.00,VWS V14.01,2013-03-05 16:40:00,
2013-03-05 10:45:00,35.6,11.3,27.43,NW,315,10.1,19.9,36,0.00,,---,0.00,VWS V14.01,2013-03-05 16:45:00,
2013-03-05 10:50:00,35.6,11.3,27.43,NE,45,7.6,19.5,36,0.00,,---,0.00,VWS V14.01,2013-03-05 16:50:00,
2013-03-05 10:55:00,36.0,11.6,27.43,NNW,338,15.2,19.5,36,0.00,,---,0.00,VWS V14.01,2013-03-05 16:55:00,
2013-03-05 11:00:00,36.3,11.9,27.43,NW,315,10.1,19.5,36,0.00,,---,0.00,VWS V14.01,2013-03-05 17:00:00,
2013-03-05 11:05:00,36.3,11.3,27.43,North,0,7.6,17.0,35,0.00,,---,0.00,VWS V14.01,2013-03-05 17:05:00,
2013-03-05 11:10:00,37.4,11.6,27.43,NW,315,13.0,17.0,34,0.00,,---,0.00,VWS V14.01,2013-03-05 17:10:00,
2013-03-05 11:15:00,36.9,11.1,27.43,NW,315,17.5,20.4,34,0.00,,---,0.00,VWS V14.01,2013-03-05 17:15:00,
2013-03-05 11:20:00,36.7,11.0,27.43,NW,315,17.7,19.0,34,0.00,,---,0.00,VWS V14.01,2013-03-05 17:20:00,
2013-03-05 11:25:00,37.2,11.4,27.43,NW,315,15.2,20.1,34,0.00,,---,0.00,VWS V14.01,2013-03-05 17:25:00,
2013-03-05 11:30:00,37.6,11.1,27.43,NNW,338,13.6,20.1,33,0.00,,---,0.00,VWS V14.01,2013-03-05 17:30:00,
2013-03-05 11:35:00,37.6,11.8,27.43,NW,315,12.3,17.9,34,0.00,,---,0.00,VWS V14.01,2013-03-05 17:35:00,
2013-03-05 11:40:00,37.8,11.3,27.43,NW,315,19.7,19.7,33,0.00,,---,0.00,VWS V14.01,2013-03-05 17:40:00,
2013-03-05 11:45:00,38.1,11.6,27.43,NW,315,19.7,19.7,33,0.00,,---,0.00,VWS V14.01,2013-03-05 17:45:00,
2013-03-05 11:50:00,38.1,10.9,27.43,NW,315,12.5,20.8,32,0.00,,---,0.00,VWS V14.01,2013-03-05 17:50:00,
2013-03-05 11:55:00,39.4,12.0,27.43,NW,315,7.8,20.8,32,0.00,,---,0.00,VWS V14.01,2013-03-05 17:55:00,
2013-03-05 12:00:00,39.7,11.6,27.43,NW,315,16.3,20.8,31,0.00,,---,0.00,VWS V14.01,2013-03-05 18:00:00,
2013-03-05 12:05:00,39.4,10.5,27.46,North,0,10.7,16.3,30,0.00,,---,0.00,VWS V14.01,2013-03-05 18:05:00,
2013-03-05 12:10:00,40.1,11.2,27.46,NW,315,8.1,16.3,30,0.00,,---,0.00,VWS V14.01,2013-03-05 18:10:00,
2013-03-05 12:15:00,40.1,11.2,27.46,NW,315,10.5,20.8,30,0.00,,---,0.00,VWS V14.01,2013-03-05 18:15:00,
2013-03-05 12:20:00,40.6,11.6,27.43,North,0,10.1,15.2,30,0.00,,---,0.00,VWS V14.01,2013-03-05 18:20:00,
2013-03-05 12:25:00,40.6,10.9,27.43,NNW,338,13.2,18.6,29,0.00,,---,0.00,VWS V14.01,2013-03-05 18:25:00,
2013-03-05 12:30:00,41.4,12.3,27.43,NE,45,10.7,19.9,30,0.00,,---,0.00,VWS V14.01,2013-03-05 18:30:00,
2013-03-05 12:35:00,41.2,5.2,27.43,NW,315,19.0,19.0,22,0.00,,---,0.00,VWS V14.01,2013-03-05 18:35:00,
2013-03-05 12:40:00,41.5,7.4,27.43,NW,315,10.1,19.0,24,0.00,,---,0.00,VWS V14.01,2013-03-05 18:40:00,
2013-03-05 12:45:00,43.0,3.6,27.43,NW,315,8.7,19.0,19,0.00,,---,0.00,VWS V14.01,2013-03-05 18:45:00,
2013-03-05 12:50:00,42.4,3.1,27.43,NW,315,7.4,19.7,19,0.00,,---,0.00,VWS V14.01,2013-03-05 18:50:00,
2013-03-05 12:55:00,42.3,3.0,27.43,NW,315,12.5,19.7,19,0.00,,---,0.00,VWS V14.01,2013-03-05 18:55:00,
2013-03-05 13:00:00,42.6,3.3,27.43,North,0,8.1,19.7,19,0.00,,---,0.00,VWS V14.01,2013-03-05 19:00:00,
2013-03-05 13:05:00,43.0,-2.9,27.43,NW,315,11.0,14.8,14,0.00,,---,0.00,VWS V14.01,2013-03-05 19:05:00,
2013-03-05 13:10:00,42.8,-8.1,27.43,North,0,7.6,17.2,11,0.00,,---,0.00,VWS V14.01,2013-03-05 19:10:00,
2013-03-05 13:15:00,43.3,-2.7,27.43,North,0,12.3,17.2,14,0.00,,---,0.00,VWS V14.01,2013-03-05 19:15:00,
2013-03-05 13:20:00,43.0,-9.9,27.43,NNW,338,6.5,17.2,10,0.00,,---,0.00,VWS V14.01,2013-03-05 19:20:00,
2013-03-05 13:25:00,43.5,-9.4,27.43,WNW,292,12.3,17.2,10,0.00,,---,0.00,VWS V14.01,2013-03-05 19:25:00,
2013-03-05 13:30:00,43.7,-9.3,27.43,NW,315,7.4,17.2,10,0.00,,---,0.00,VWS V14.01,2013-03-05 19:30:00,
2013-03-05 13:35:00,45.1,-6.2,27.43,NNW,338,7.8,7.8,11,0.00,,---,0.00,VWS V14.01,2013-03-05 19:35:00,
2013-03-05 13:40:00,45.1,-8.2,27.43,NW,315,14.8,15.4,10,0.00,,---,0.00,VWS V14.01,2013-03-05 19:40:00,
2013-03-05 13:45:00,45.5,-7.9,27.43,West,270,9.6,15.9,10,0.00,,---,0.00,VWS V14.01,2013-03-05 19:45:00,
2013-03-05 13:50:00,44.8,-8.5,27.43,NW,315,12.5,17.5,10,0.00,,---,0.00,VWS V14.01,2013-03-05 19:50:00,
2013-03-05 13:55:00,45.3,-8.1,27.43,NNW,338,13.2,17.5,10,0.00,,---,0.00,VWS V14.01,2013-03-05 19:55:00,
2013-03-05 14:00:00,44.8,-8.5,27.43,NW,315,8.5,19.2,10,0.00,,---,0.00,VWS V14.01,2013-03-05 20:00:00,
2013-03-05 14:05:00,44.8,-8.5,27.43,NNE,22,3.1,14.5,10,0.00,,---,0.00,VWS V14.01,2013-03-05 20:05:00,
2013-03-05 14:10:00,45.9,-7.6,27.43,NW,315,12.1,14.5,10,0.00,,---,0.00,VWS V14.01,2013-03-05 20:10:00,
2013-03-05 14:15:00,45.7,-7.8,27.43,NW,315,16.1,16.1,10,0.00,,---,0.00,VWS V14.01,2013-03-05 20:15:00,
2013-03-05 14:20:00,46.0,-7.5,27.40,NW,315,8.7,12.8,10,0.00,,---,0.00,VWS V14.01,2013-03-05 20:20:00,
2013-03-05 14:25:00,45.5,-7.9,27.40,NW,315,13.0,15.9,10,0.00,,---,0.00,VWS V14.01,2013-03-05 20:25:00,
2013-03-05 14:30:00,46.4,-9.4,27.40,NW,315,7.8,15.9,9,0.00,,---,0.00,VWS V14.01,2013-03-05 20:30:00,
2013-03-05 14:35:00,46.4,-9.4,27.40,NW,315,8.5,15.4,9,0.00,,---,0.00,VWS V14.01,2013-03-05 20:35:00,
2013-03-05 14:40:00,46.4,-9.4,27.40,NW,315,10.5,15.4,9,0.00,,---,0.00,VWS V14.01,2013-03-05 20:40:00,
2013-03-05 14:45:00,46.8,-9.1,27.40,NW,315,6.5,15.4,9,0.00,,---,0.00,VWS V14.01,2013-03-05 20:45:00,
2013-03-05 14:50:00,46.6,-9.2,27.40,NW,315,8.7,10.5,9,0.00,,---,0.00,VWS V14.01,2013-03-05 20:50:00,
2013-03-05 14:55:00,46.6,-9.2,27.40,NW,315,9.6,10.5,9,0.00,,---,0.00,VWS V14.01,2013-03-05 20:55:00,
2013-03-05 15:00:00,46.6,-9.2,27.40,NW,315,6.0,15.7,9,0.00,,---,0.00,VWS V14.01,2013-03-05 21:00:00,
2013-03-05 15:05:00,46.9,-8.9,27.40,North,0,7.6,8.1,9,0.00,,---,0.00,VWS V14.01,2013-03-05 21:05:00,
2013-03-05 15:10:00,46.9,-8.9,27.40,NW,315,12.5,15.9,9,0.00,,---,0.00,VWS V14.01,2013-03-05 21:10:00,
2013-03-05 15:15:00,47.5,-8.5,27.40,North,0,0.0,15.9,9,0.00,,---,0.00,VWS V14.01,2013-03-05 21:15:00,
2013-03-05 15:20:00,47.7,-8.4,27.37,North,0,6.0,12.1,9,0.00,,---,0.00,VWS V14.01,2013-03-05 21:20:00,
2013-03-05 15:25:00,47.7,-8.4,27.37,NE,45,6.0,12.1,9,0.00,,---,0.00,VWS V14.01,2013-03-05 21:25:00,
2013-03-05 15:30:00,47.7,-8.4,27.37,NW,315,5.4,12.1,9,0.00,,---,0.00,VWS V14.01,2013-03-05 21:30:00,
2013-03-05 15:35:00,47.3,-8.7,27.37,NW,315,8.1,11.4,9,0.00,,---,0.00,VWS V14.01,2013-03-05 21:35:00,
2013-03-05 15:40:00,47.3,-8.7,27.37,WNW,292,9.6,12.1,9,0.00,,---,0.00,VWS V14.01,2013-03-05 21:40:00,
2013-03-05 15:45:00,46.9,-8.9,27.37,North,0,6.3,12.1,9,0.00,,---,0.00,VWS V14.01,2013-03-05 21:45:00,
2013-03-05 15:50:00,47.3,-8.7,27.37,North,0,8.7,12.3,9,0.00,,---,0.00,VWS V14.01,2013-03-05 21:50:00,
2013-03-05 15:55:00,47.1,-8.8,27.37,WNW,292,7.6,12.3,9,0.00,,---,0.00,VWS V14.01,2013-03-05 21:55:00,
2013-03-05 16:00:00,47.8,-8.3,27.37,NW,315,9.4,12.3,9,0.00,,---,0.00,VWS V14.01,2013-03-05 22:00:00,
2013-03-05 16:05:00,46.8,-9.1,27.37,NW,315,13.0,13.9,9,0.00,,---,0.00,VWS V14.01,2013-03-05 22:05:00,
2013-03-05 16:10:00,46.9,-8.9,27.37,North,0,6.5,13.9,9,0.00,,---,0.00,VWS V14.01,2013-03-05 22:10:00,
2013-03-05 16:15:00,46.9,-8.9,27.37,NW,315,5.6,13.9,9,0.00,,---,0.00,VWS V14.01,2013-03-05 22:15:00,
2013-03-05 16:20:00,47.7,-8.4,27.37,NW,315,5.4,6.9,9,0.00,,---,0.00,VWS V14.01,2013-03-05 22:20:00,
2013-03-05 16:25:00,47.1,-8.8,27.37,North,0,8.7,10.7,9,0.00,,---,0.00,VWS V14.01,2013-03-05 22:25:00,
2013-03-05 16:30:00,47.7,-8.4,27.37,NW,315,5.6,10.7,9,0.00,,---,0.00,VWS V14.01,2013-03-05 22:30:00,
2013-03-05 16:35:00,47.3,-8.7,27.37,NW,315,6.3,10.7,9,0.00,,---,0.00,VWS V14.01,2013-03-05 22:35:00,
2013-03-05 16:40:00,47.3,-8.7,27.37,NW,315,2.9,10.7,9,0.00,,---,0.00,VWS V14.01,2013-03-05 22:40:00,
2013-03-05 16:45:00,47.5,-8.5,27.37,NW,315,5.6,10.7,9,0.00,,---,0.00,VWS V14.01,2013-03-05 22:45:00,
2013-03-05 16:50:00,47.1,-8.8,27.37,NW,315,7.6,8.7,9,0.00,,---,0.00,VWS V14.01,2013-03-05 22:50:00,
2013-03-05 16:55:00,46.8,-9.1,27.37,NW,315,5.6,9.8,9,0.00,,---,0.00,VWS V14.01,2013-03-05 22:55:00,
2013-03-05 17:00:00,46.8,-9.1,27.37,NNW,338,9.6,11.4,9,0.00,,---,0.00,VWS V14.01,2013-03-05 23:00:00,
2013-03-05 17:05:00,46.4,-9.4,27.37,NW,315,5.8,11.4,9,0.00,,---,0.00,VWS V14.01,2013-03-05 23:05:00,
2013-03-05 17:10:00,46.2,-7.4,27.37,NNW,338,7.8,11.4,10,0.00,,---,0.00,VWS V14.01,2013-03-05 23:10:00,
2013-03-05 17:15:00,46.4,-9.4,27.37,NW,315,3.4,11.4,9,0.00,,---,0.00,VWS V14.01,2013-03-05 23:15:00,
2013-03-05 17:20:00,46.2,-7.4,27.37,NW,315,6.5,6.5,10,0.00,,---,0.00,VWS V14.01,2013-03-05 23:20:00,
2013-03-05 17:25:00,45.5,-7.9,27.37,NW,315,7.8,9.4,10,0.00,,---,0.00,VWS V14.01,2013-03-05 23:25:00,
2013-03-05 17:30:00,45.1,-8.2,27.37,North,0,5.4,9.4,10,0.00,,---,0.00,VWS V14.01,2013-03-05 23:30:00,
2013-03-05 17:35:00,44.6,-8.6,27.37,NNW,338,5.6,5.8,10,0.00,,---,0.00,VWS V14.01,2013-03-05 23:35:00,
2013-03-05 17:40:00,44.4,-8.8,27.37,NNW,338,5.4,7.2,10,0.00,,---,0.00,VWS V14.01,2013-03-05 23:40:00,
2013-03-05 17:45:00,43.9,-9.2,27.37,North,0,4.0,7.2,10,0.00,,---,0.00,VWS V14.01,2013-03-05 23:45:00,
2013-03-05 17:50:00,43.5,-9.4,27.37,North,0,2.9,4.9,10,0.00,,---,0.00,VWS V14.01,2013-03-05 23:50:00,
2013-03-05 17:55:00,42.6,-8.2,27.37,North,0,6.0,6.0,11,0.00,,---,0.00,VWS V14.01,2013-03-05 23:55:00,
2013-03-05 18:00:00,41.2,-9.3,27.37,North,0,3.8,6.0,11,0.00,,---,0.00,VWS V14.01,2013-03-06 00:00:00,
2013-03-05 18:05:00,40.5,-9.9,27.37,North,0,4.0,5.4,11,0.00,,---,0.00,VWS V14.01,2013-03-06 00:05:00,
2013-03-05 18:10:00,39.7,-10.5,27.37,North,0,2.9,5.4,11,0.00,,---,0.00,VWS V14.01,2013-03-06 00:10:00,
2013-03-05 18:15:00,38.8,-11.2,27.37,North,0,2.5,5.4,11,0.00,,---,0.00,VWS V14.01,2013-03-06 00:15:00,
2013-03-05 18:20:00,38.5,-11.5,27.37,North,0,2.9,2.9,11,0.00,,---,0.00,VWS V14.01,2013-03-06 00:20:00,
2013-03-05 18:25:00,36.7,-11.1,27.37,North,0,3.4,3.8,12,0.00,,---,0.00,VWS V14.01,2013-03-06 00:25:00,
2013-03-05 18:30:00,35.4,-12.1,27.37,North,0,4.0,4.0,12,0.00,,---,0.00,VWS V14.01,2013-03-06 00:30:00,
2013-03-05 18:35:00,34.3,-13.0,27.37,North,0,4.3,4.5,12,0.00,,---,0.00,VWS V14.01,2013-03-06 00:35:00,
2013-03-05 18:40:00,33.6,-12.0,27.37,NNE,22,4.7,4.9,13,0.00,,---,0.00,VWS V14.01,2013-03-06 00:40:00,
2013-03-05 18:45:00,33.8,-13.4,27.37,NNE,22,4.7,4.9,12,0.00,,---,0.00,VWS V14.01,2013-03-06 00:45:00,
2013-03-05 18:50:00,33.6,-12.0,27.37,North,0,4.7,5.4,13,0.00,,---,0.00,VWS V14.01,2013-03-06 00:50:00,
2013-03-05 18:55:00,32.5,-8.7,27.37,NNE,22,5.6,5.6,16,0.00,,---,0.00,VWS V14.01,2013-03-06 00:55:00,
2013-03-05 19:00:00,32.5,-5.1,27.37,NNE,22,5.4,5.6,19,0.00,,---,0.00,VWS V14.01,2013-03-06 01:00:00,
2013-03-05 19:04:00,32.2,-0.5,27.40,NNE,22,4.9,4.9,24,0.00,,---,0.00,VWS V14.01,2013-03-06 01:04:00,
2013-03-05 19:09:00,31.3,2.7,27.40,NE,45,5.4,5.4,29,0.00,,---,0.00,VWS V14.01,2013-03-06 01:09:00,
2013-03-05 19:14:00,30.6,4.2,27.40,NE,45,4.7,5.4,32,0.00,,---,0.00,VWS V14.01,2013-03-06 01:14:00,
2013-03-05 19:15:00,25.0,5.7,27.40,SE,135,0.0,3.8,43,0.00,,---,0.00,VWS V14.01,2013-03-06 01:15:00,
2013-03-05 19:19:00,30.4,4.1,27.40,NE,45,5.4,5.6,32,0.00,,---,0.00,VWS V14.01,2013-03-06 01:19:00,
2013-03-05 19:24:00,30.2,5.2,27.40,NE,45,4.5,5.6,34,0.00,,---,0.00,VWS V14.01,2013-03-06 01:24:00,
2013-03-05 19:29:00,29.8,4.9,27.40,NE,45,4.0,5.6,34,0.00,,---,0.00,VWS V14.01,2013-03-06 01:29:00,
2013-03-05 19:30:00,25.0,5.7,27.40,West,270,0.0,2.0,43,0.00,,---,0.00,VWS V14.01,2013-03-06 01:30:00,
2013-03-05 19:34:00,29.5,5.2,27.40,NE,45,4.0,4.3,35,0.00,,---,0.00,VWS V14.01,2013-03-06 01:34:00,
2013-03-05 19:39:00,28.6,5.0,27.40,NE,45,4.9,4.9,36,0.00,,---,0.00,VWS V14.01,2013-03-06 01:39:00,
2013-03-05 19:44:00,28.2,4.7,27.40,NE,45,4.9,4.9,36,0.00,,---,0.00,VWS V14.01,2013-03-06 01:44:00,
2013-03-05 19:45:00,25.0,5.7,27.40,East,90,1.6,2.9,43,0.00,,---,0.00,VWS V14.01,2013-03-06 01:45:00,
2013-03-05 19:49:00,27.7,5.4,27.40,ENE,68,2.2,4.9,38,0.00,,---,0.00,VWS V14.01,2013-03-06 01:49:00,
2013-03-05 19:54:00,27.1,4.9,27.40,NE,45,0.9,4.9,38,0.00,,---,0.00,VWS V14.01,2013-03-06 01:54:00,
2013-03-05 19:59:00,26.6,5.6,27.40,NE,45,2.7,4.9,40,0.00,,---,0.00,VWS V14.01,2013-03-06 01:59:00,
2013-03-05 20:00:00,25.3,6.5,27.40,NE,45,2.5,3.8,44,0.00,,---,0.00,VWS V14.01,2013-03-06 02:00:00,
2013-03-05 20:04:00,25.7,4.7,27.40,East,90,0.0,2.7,40,0.00,,---,0.00,VWS V14.01,2013-03-06 02:04:00,
2013-03-05 20:09:00,25.3,5.5,27.40,SSW,202,2.2,3.8,42,0.00,,---,0.00,VWS V14.01,2013-03-06 02:09:00,
2013-03-05 20:14:00,25.0,5.7,27.40,SE,135,0.0,3.8,43,0.00,,---,0.00,VWS V14.01,2013-03-06 02:14:00,
2013-03-05 20:15:00,24.8,6.5,27.40,East,90,3.8,3.8,45,0.00,,---,0.00,VWS V14.01,2013-03-06 02:15:00,
2013-03-05 20:19:00,24.8,5.5,27.40,NNE,22,1.3,2.0,43,0.00,,---,0.00,VWS V14.01,2013-03-06 02:19:00,
2013-03-05 20:24:00,24.8,5.5,27.40,SW,225,0.0,2.0,43,0.00,,---,0.00,VWS V14.01,2013-03-06 02:24:00,
2013-03-05 20:29:00,25.0,5.7,27.40,West,270,0.0,2.0,43,0.00,,---,0.00,VWS V14.01,2013-03-06 02:29:00,
2013-03-05 20:30:00,25.3,7.0,27.40,SE,135,0.0,5.4,45,0.00,,---,0.00,VWS V14.01,2013-03-06 02:30:00,
2013-03-05 20:34:00,25.0,5.7,27.40,North,0,1.6,2.2,43,0.00,,---,0.00,VWS V14.01,2013-03-06 02:34:00,
2013-03-05 20:39:00,24.8,6.0,27.40,East,90,0.0,2.9,44,0.00,,---,0.00,VWS V14.01,2013-03-06 02:39:00,
2013-03-05 20:44:00,24.8,6.0,27.40,ESE,112,0.0,2.9,44,0.00,,---,0.00,VWS V14.01,2013-03-06 02:44:00,
2013-03-05 20:45:00,23.5,5.3,27.40,SE,135,2.5,2.7,45,0.00,,---,0.00,VWS V14.01,2013-03-06 02:45:00,
2013-03-05 20:49:00,25.5,6.7,27.40,East,90,2.5,3.1,44,0.00,,---,0.00,VWS V14.01,2013-03-06 02:49:00,
2013-03-05 20:54:00,25.7,6.8,27.40,SE,135,0.0,3.8,44,0.00,,---,0.00,VWS V14.01,2013-03-06 02:54:00,
2013-03-05 20:59:00,25.5,6.7,27.40,NE,45,1.6,3.8,44,0.00,,---,0.00,VWS V14.01,2013-03-06 02:59:00,
2013-03-05 21:00:00,25.3,8.4,27.43,East,90,4.0,4.7,48,0.00,,---,0.00,VWS V14.01,2013-03-06 03:00:00,
2013-03-05 21:04:00,25.0,6.2,27.40,ENE,68,0.0,2.5,44,0.00,,---,0.00,VWS V14.01,2013-03-06 03:04:00,
2013-03-05 21:09:00,24.4,5.7,27.40,ESE,112,0.0,2.5,44,0.00,,---,0.00,VWS V14.01,2013-03-06 03:09:00,
2013-03-05 21:14:00,24.4,6.2,27.40,East,90,3.4,3.4,45,0.00,,---,0.00,VWS V14.01,2013-03-06 03:14:00,
2013-03-05 21:15:00,26.4,9.9,27.43,ESE,112,5.4,7.2,49,0.00,,---,0.00,VWS V14.01,2013-03-06 03:15:00,
2013-03-05 21:19:00,25.5,7.6,27.40,East,90,3.6,5.4,46,0.00,,---,0.00,VWS V14.01,2013-03-06 03:19:00,
2013-03-05 21:24:00,26.4,8.5,27.40,SE,135,1.3,5.4,46,0.00,,---,0.00,VWS V14.01,2013-03-06 03:24:00,
2013-03-05 21:29:00,25.9,7.5,27.40,SE,135,0.0,5.4,45,0.00,,---,0.00,VWS V14.01,2013-03-06 03:29:00,
2013-03-05 21:30:00,26.1,10.0,27.43,ESE,112,5.6,7.4,50,0.00,,---,0.00,VWS V14.01,2013-03-06 03:30:00,
2013-03-05 21:34:00,24.6,6.8,27.40,SW,225,0.0,0.0,46,0.00,,---,0.00,VWS V14.01,2013-03-06 03:34:00,
2013-03-05 21:39:00,23.9,6.1,27.40,SW,225,0.0,0.0,46,0.00,,---,0.00,VWS V14.01,2013-03-06 03:39:00,
2013-03-05 21:44:00,23.5,5.3,27.40,SE,135,2.5,2.7,45,0.00,,---,0.00,VWS V14.01,2013-03-06 03:44:00,
2013-03-05 21:45:00,25.3,10.2,27.43,SE,135,3.6,7.4,52,0.00,,---,0.00,VWS V14.01,2013-03-06 03:45:00,
2013-03-05 21:50:00,23.7,6.0,27.43,East,90,2.9,2.9,46,0.00,,---,0.00,VWS V14.01,2013-03-06 03:50:00,
2013-03-05 21:55:00,24.4,7.6,27.43,ESE,112,4.7,4.7,48,0.00,,---,0.00,VWS V14.01,2013-03-06 03:55:00,
2013-03-05 22:00:00,25.3,8.4,27.43,ESE,112,4.5,4.7,48,0.00,,---,0.00,VWS V14.01,2013-03-06 04:00:00,
2013-03-05 22:05:00,25.5,8.6,27.43,ESE,112,5.4,5.4,48,0.00,,---,0.00,VWS V14.01,2013-03-06 04:05:00,
2013-03-05 22:10:00,26.2,9.2,27.43,ESE,112,5.6,6.3,48,0.00,,---,0.00,VWS V14.01,2013-03-06 04:10:00,
2013-03-05 22:15:00,26.4,9.9,27.43,ESE,112,5.4,7.2,49,0.00,,---,0.00,VWS V14.01,2013-03-06 04:15:00,
2013-03-05 22:20:00,26.6,10.0,27.43,ESE,112,5.4,6.5,49,0.00,,---,0.00,VWS V14.01,2013-03-06 04:20:00,
2013-03-05 22:25:00,26.4,9.9,27.43,ESE,112,7.4,7.4,49,0.00,,---,0.00,VWS V14.01,2013-03-06 04:25:00,
2013-03-05 22:30:00,26.1,10.0,27.43,SE,135,4.9,7.4,50,0.00,,---,0.00,VWS V14.01,2013-03-06 04:30:00,
2013-03-05 22:35:00,26.1,10.0,27.43,SE,135,5.4,7.4,50,0.00,,---,0.00,VWS V14.01,2013-03-06 04:35:00,
2013-03-05 22:40:00,25.7,10.1,27.43,ESE,112,3.8,7.4,51,0.00,,---,0.00,VWS V14.01,2013-03-06 04:40:00,
2013-03-05 22:45:00,25.3,10.2,27.43,SE,135,3.8,7.4,52,0.00,,---,0.00,VWS V14.01,2013-03-06 04:45:00,
2013-03-05 22:50:00,25.0,9.9,27.43,SE,135,3.4,4.7,52,0.00,,---,0.00,VWS V14.01,2013-03-06 04:50:00,
2013-03-05 22:55:00,24.6,10.4,27.43,East,90,4.9,6.3,54,0.00,,---,0.00,VWS V14.01,2013-03-06 04:55:00,
2013-03-05 23:00:00,24.8,10.9,27.43,ESE,112,5.6,6.3,55,0.00,,---,0.00,VWS V14.01,2013-03-06 05:00:00,
2013-03-05 23:05:00,24.8,10.9,27.43,SE,135,6.0,6.5,55,0.00,,---,0.00,VWS V14.01,2013-03-06 05:05:00,
2013-03-05 23:10:00,24.8,10.9,27.43,ESE,112,4.9,6.5,55,0.00,,---,0.00,VWS V14.01,2013-03-06 05:10:00,
2013-03-05 23:15:00,24.8,10.9,27.43,ESE,112,4.9,6.5,55,0.00,,---,0.00,VWS V14.01,2013-03-06 05:15:00,
2013-03-05 23:20:00,24.6,10.8,27.43,ESE,112,3.4,5.6,55,0.00,,---,0.00,VWS V14.01,2013-03-06 05:20:00,
2013-03-05 23:25:00,24.6,10.8,27.43,SE,135,4.9,5.8,55,0.00,,---,0.00,VWS V14.01,2013-03-06 05:25:00,
2013-03-05 23:30:00,24.4,10.6,27.43,ESE,112,3.8,5.8,55,0.00,,---,0.00,VWS V14.01,2013-03-06 05:30:00,
2013-03-05 23:35:00,24.4,11.0,27.43,SE,135,5.8,6.5,56,0.00,,---,0.00,VWS V14.01,2013-03-06 05:35:00,
2013-03-05 23:40:00,24.3,10.8,27.43,East,90,4.3,6.5,56,0.00,,---,0.00,VWS V14.01,2013-03-06 05:40:00,
2013-03-05 23:45:00,24.3,10.8,27.43,SE,135,2.9,6.5,56,0.00,,---,0.00,VWS V14.01,2013-03-06 05:45:00,
2013-03-05 23:50:00,23.2,9.4,27.43,SE,135,2.5,2.9,55,0.00,,---,0.00,VWS V14.01,2013-03-06 05:50:00,
2013-03-05 23:55:00,23.0,10.4,27.43,East,90,5.6,5.6,58,0.00,,---,0.00,VWS V14.01,2013-03-06 05:55:00,